Time,TemperatureF,DewpointF,PressureIn,WindDirection,WindDirectionDegrees,WindSpeedMPH,WindSpeedGustMPH,Humidity,HourlyPrecipIn,Conditions,Clouds,dailyrainin,SoftwareType,DateUTC
2013-11-16 00:12:00,47.4,47.0,30.15,SSW,208,0.0,0.0,97,0.01,,,0.01,weatherlink.com 1.10,2013-11-16 05:12:00,
2013-11-16 00:27:00,47.3,47.0,30.14,SSW,208,0.0,0.0,97,0.01,,,0.01,weatherlink.com 1.10,2013-11-16 05:27:00,
2013-11-16 00:42:00,47.3,47.0,30.14,SW,224,0.0,2.0,97,0.01,,,0.01,weatherlink.com 1.10,2013-11-16 05:42:00,
2013-11-16 00:57:00,47.6,47.0,30.14,WSW,257,0.0,0.0,97,0.01,,,0.01,weatherlink.com 1.10,2013-11-16 05:57:00,
2013-11-16 01:14:00,47.9,47.0,30.14,West,266,0.0,3.0,97,0.00,,,0.01,weatherlink.com 1.10,2013-11-16 06:14:00,
2013-11-16 01:42:00,48.0,47.0,30.15,WSW,240,0.0,5.0,97,0.00,,,0.01,weatherlink.com 1.10,2013-11-16 06:42:00,
2013-11-16 02:07:00,48.3,48.0,30.14,SW,226,2.0,3.0,97,0.00,,,0.01,weatherlink.com 1.10,2013-11-16 07:07:00,
2013-11-16 02:15:00,48.3,48.0,30.14,SW,214,1.0,3.0,97,0.00,,,0.01,weatherlink.com 1.10,2013-11-16 07:15:00,
2013-11-16 02:28:00,48.3,48.0,30.14,SSW,202,0.0,3.0,97,0.00,,,0.01,weatherlink.com 1.10,2013-11-16 07:28:00,
2013-11-16 02:45:00,48.4,48.0,30.14,WSW,239,0.0,4.0,97,0.00,,,0.01,weatherlink.com 1.10,2013-11-16 07:45:00,
2013-11-16 02:58:00,48.2,47.0,30.14,SSW,204,0.0,2.0,97,0.00,,,0.01,weatherlink.com 1.10,2013-11-16 07:58:00,
2013-11-16 03:43:00,48.1,47.0,30.14,SSW,210,0.0,3.0,97,0.00,,,0.01,weatherlink.com 1.10,2013-11-16 08:43:00,
2013-11-16 03:58:00,48.1,47.0,30.14,SW,236,2.0,4.0,97,0.00,,,0.01,weatherlink.com 1.10,2013-11-16 08:58:00,
2013-11-16 04:12:00,48.2,47.0,30.13,SW,236,0.0,1.0,97,0.00,,,0.01,weatherlink.com 1.10,2013-11-16 09:12:00,
2013-11-16 04:28:00,48.1,47.0,30.13,SSW,202,1.0,4.0,97,0.00,,,0.01,weatherlink.com 1.10,2013-11-16 09:28:00,
2013-11-16 04:58:00,48.0,47.0,30.14,SW,214,2.0,4.0,97,0.00,,,0.01,weatherlink.com 1.10,2013-11-16 09:58:00,
2013-11-16 05:13:00,47.6,47.0,30.13,South,191,0.0,0.0,97,0.00,,,0.01,weatherlink.com 1.10,2013-11-16 10:13:00,
2013-11-16 05:28:00,47.5,47.0,30.13,SSW,196,0.0,0.0,98,0.00,,,0.01,weatherlink.com 1.10,2013-11-16 10:28:00,
2013-11-16 05:44:00,47.5,47.0,30.14,SSW,207,0.0,0.0,98,0.00,,,0.01,weatherlink.com 1.10,2013-11-16 10:44:00,
2013-11-16 06:01:00,47.3,47.0,30.13,SSW,195,0.0,0.0,98,0.00,,,0.01,weatherlink.com 1.10,2013-11-16 11:01:00,
2013-11-16 06:13:00,47.3,47.0,30.13,SW,235,0.0,0.0,98,0.00,,,0.01,weatherlink.com 1.10,2013-11-16 11:13:00,
2013-11-16 06:43:00,47.1,47.0,30.14,West,259,0.0,0.0,98,0.00,,,0.01,weatherlink.com 1.10,2013-11-16 11:43:00,
2013-11-16 07:13:00,46.5,46.0,30.15,SW,231,0.0,0.0,98,0.00,,,0.01,weatherlink.com 1.10,2013-11-16 12:13:00,
2013-11-16 08:00:00,46.8,46.0,30.17,South,181,0.0,0.0,98,0.01,,,0.02,weatherlink.com 1.10,2013-11-16 13:00:00,
2013-11-16 08:29:00,47.6,47.0,30.17,SW,222,0.0,0.0,98,0.01,,,0.02,weatherlink.com 1.10,2013-11-16 13:29:00,
2013-11-16 08:58:00,47.1,46.0,30.18,ENE,70,0.0,1.0,97,0.00,,,0.02,weatherlink.com 1.10,2013-11-16 13:58:00,
2013-11-16 09:13:00,46.9,46.0,30.18,SE,133,0.0,0.0,97,0.00,,,0.02,weatherlink.com 1.10,2013-11-16 14:13:00,
2013-11-16 09:28:00,46.8,46.0,30.18,East,89,0.0,0.0,97,0.00,,,0.02,weatherlink.com 1.10,2013-11-16 14:28:00,
2013-11-16 09:47:00,46.7,46.0,30.19,NE,52,0.0,0.0,97,0.00,,,0.02,weatherlink.com 1.10,2013-11-16 14:47:00,
2013-11-16 09:58:00,46.8,46.0,30.19,NE,51,0.0,0.0,97,0.00,,,0.02,weatherlink.com 1.10,2013-11-16 14:58:00,
2013-11-16 10:29:00,46.6,46.0,30.20,NE,38,0.0,0.0,97,0.00,,,0.02,weatherlink.com 1.10,2013-11-16 15:29:00,
2013-11-16 11:15:00,47.1,47.0,30.20,NE,44,0.0,0.0,98,0.00,,,0.02,weatherlink.com 1.10,2013-11-16 16:15:00,
2013-11-16 11:29:00,47.6,47.0,30.20,NE,49,0.0,0.0,98,0.00,,,0.02,weatherlink.com 1.10,2013-11-16 16:29:00,
2013-11-16 11:45:00,49.1,49.0,30.19,WSW,237,0.0,0.0,98,0.00,,,0.02,weatherlink.com 1.10,2013-11-16 16:45:00,
2013-11-16 11:59:00,50.2,50.0,30.19,South,182,0.0,0.0,98,0.00,,,0.02,weatherlink.com 1.10,2013-11-16 16:59:00,
2013-11-16 12:14:00,49.5,49.0,30.18,NE,51,0.0,0.0,97,0.00,,,0.02,weatherlink.com 1.10,2013-11-16 17:14:00,
2013-11-16 12:29:00,49.4,49.0,30.18,NNE,22,0.0,0.0,97,0.00,,,0.02,weatherlink.com 1.10,2013-11-16 17:29:00,
2013-11-16 12:45:00,49.8,49.0,30.17,NE,34,0.0,0.0,97,0.00,,,0.02,weatherlink.com 1.10,2013-11-16 17:45:00,
2013-11-16 13:29:00,49.1,48.0,30.16,NNE,33,0.0,0.0,96,0.00,,,0.02,weatherlink.com 1.10,2013-11-16 18:29:00,
2013-11-16 13:49:00,49.2,48.0,30.15,NE,53,1.0,4.0,97,0.00,,,0.02,weatherlink.com 1.10,2013-11-16 18:49:00,
2013-11-16 13:59:00,49.5,49.0,30.14,NE,49,3.0,4.0,97,0.00,,,0.02,weatherlink.com 1.10,2013-11-16 18:59:00,
2013-11-16 14:45:00,49.9,49.0,30.14,NE,37,2.0,3.0,97,0.00,,,0.02,weatherlink.com 1.10,2013-11-16 19:45:00,
2013-11-16 15:15:00,49.5,49.0,30.14,NE,37,1.0,2.0,97,0.00,,,0.02,weatherlink.com 1.10,2013-11-16 20:15:00,
2013-11-16 15:44:00,48.9,48.0,30.15,NNE,19,0.0,0.0,97,0.00,,,0.02,weatherlink.com 1.10,2013-11-16 20:44:00,
2013-11-16 16:00:00,48.6,48.0,30.15,NNE,22,0.0,0.0,97,0.00,,,0.02,weatherlink.com 1.10,2013-11-16 21:00:00,
2013-11-16 16:15:00,48.5,48.0,30.15,NE,46,0.0,0.0,98,0.00,,,0.02,weatherlink.com 1.10,2013-11-16 21:15:00,
2013-11-16 16:34:00,48.2,48.0,30.15,ENE,59,0.0,2.0,98,0.00,,,0.02,weatherlink.com 1.10,2013-11-16 21:34:00,
2013-11-16 17:01:00,47.9,47.0,30.16,NNE,15,0.0,0.0,98,0.00,,,0.02,weatherlink.com 1.10,2013-11-16 22:01:00,
2013-11-16 17:15:00,48.0,48.0,30.16,WSW,252,0.0,0.0,98,0.00,,,0.02,weatherlink.com 1.10,2013-11-16 22:15:00,
2013-11-16 17:30:00,47.8,47.0,30.16,NE,44,0.0,0.0,98,0.00,,,0.02,weatherlink.com 1.10,2013-11-16 22:30:00,
2013-11-16 17:46:00,47.5,47.0,30.16,NE,54,1.0,1.0,98,0.00,,,0.02,weatherlink.com 1.10,2013-11-16 22:46:00,
2013-11-16 18:01:00,47.6,47.0,30.16,NNE,25,0.0,1.0,98,0.00,,,0.02,weatherlink.com 1.10,2013-11-16 23:01:00,
2013-11-16 18:16:00,47.5,47.0,30.15,SSW,212,0.0,0.0,98,0.00,,,0.02,weatherlink.com 1.10,2013-11-16 23:16:00,
2013-11-16 18:31:00,47.5,47.0,30.16,WSW,240,0.0,0.0,98,0.00,,,0.02,weatherlink.com 1.10,2013-11-16 23:31:00,
2013-11-16 19:01:00,48.0,48.0,30.16,WSW,238,0.0,0.0,98,0.00,,,0.02,weatherlink.com 1.10,2013-11-17 00:01:00,
2013-11-16 19:30:00,47.7,47.0,30.17,North,11,0.0,0.0,98,0.00,,,0.02,weatherlink.com 1.10,2013-11-17 00:30:00,
2013-11-16 19:45:00,47.6,47.0,30.18,NNE,14,0.0,0.0,98,0.00,,,0.02,weatherlink.com 1.10,2013-11-17 00:45:00,
2013-11-16 20:00:00,47.7,47.0,30.18,NNE,13,0.0,0.0,98,0.00,,,0.02,weatherlink.com 1.10,2013-11-17 01:00:00,
2013-11-16 20:31:00,49.0,49.0,30.18,North,5,0.0,0.0,98,0.00,,,0.02,weatherlink.com 1.10,2013-11-17 01:31:00,
2013-11-16 20:46:00,48.8,48.0,30.19,North,5,0.0,0.0,98,0.00,,,0.02,weatherlink.com 1.10,2013-11-17 01:46:00,
2013-11-16 21:00:00,49.3,49.0,30.18,SW,236,0.0,0.0,98,0.00,,,0.02,weatherlink.com 1.10,2013-11-17 02:00:00,
2013-11-16 21:15:00,49.6,49.0,30.18,WSW,243,0.0,0.0,98,0.00,,,0.02,weatherlink.com 1.10,2013-11-17 02:15:00,
2013-11-16 21:30:00,49.9,49.0,30.18,WSW,257,0.0,0.0,98,0.00,,,0.02,weatherlink.com 1.10,2013-11-17 02:30:00,
2013-11-16 21:45:00,50.0,50.0,30.18,NW,317,0.0,1.0,98,0.00,,,0.02,weatherlink.com 1.10,2013-11-17 02:45:00,
2013-11-16 22:01:00,49.9,49.0,30.17,SW,221,0.0,1.0,98,0.00,,,0.02,weatherlink.com 1.10,2013-11-17 03:01:00,
2013-11-16 22:46:00,50.3,50.0,30.17,WSW,240,0.0,2.0,98,0.00,,,0.02,weatherlink.com 1.10,2013-11-17 03:46:00,
2013-11-16 23:16:00,50.5,50.0,30.17,NNE,32,0.0,4.0,98,0.00,,,0.02,weatherlink.com 1.10,2013-11-17 04:16:00,
2013-11-16 23:46:00,50.5,50.0,30.17,WSW,243,0.0,0.0,98,0.00,,,0.02,weatherlink.com 1.10,2013-11-17 04:46:00,